User: anonymous
Location: Montr�al
(45.5000°N, 73.5830°W)
Time: 15:54:17
(UTC-04:00)
Language:

Cosmos 2369 - Orbit

View from above orbital plane
View from above orbital plane
View from above satellite
View from above satellite

Ground track
Ground track

The orbit data is extracted from the following two-line orbital elements,

1 26069U 00006A   14205.62351405 -.00000076  00000-0 -15416-4 0  3010
2 26069 070.9970 056.4493 0011313 023.0955 034.9417 14.13250476746560
Epoch (UTC): 24 July 2014 14:57:51
Eccentricity: 0.0011313
inclination: 70.9970°
perigee height: 840 km
apogee height: 856 km
right ascension of ascending node: 56.4493°
argument of perigee: 23.0955°
revolutions per day: 14.13250476
mean anomaly at epoch: 34.9417°
orbit number at epoch: 74656

The dashed part of the orbit path shows where the satellite is in the earth's shadow,  

DLR